Showing default

TOMORROW-S1, 60479

Orbit data source: Space-Track

TOMORROW-S1, 60479 is a payload satellite owned by Tomorrow.io (US) in SSO that was launched on Fri, 16 Aug 2024 UTC via an FALCON 9 launch vehicle from the Air Force Western Test Range (AFWTR). Payload-class satellites include a variety of spacecraft equipped with specific instruments for various scientific and technological missions. These include communications satellites like Starlink; space stations such as the ISS; scientific satellites like the Hubble; Earth observation satellites from companies like Planet Labs, Umbra, and HawkEye 360; GPS; miniature CubeSats for education and research; and military/defense satellites.

Loading next visibility...
Identifier
60479, 2024-149M
Orbit
SSO
Country
Flag of USUS
Related business
Manufacturer
Blue Canyon
Mission
Operational Commercial Weather
Bus & Motor
CUBESAT 6U, Unknown motor
Mass
12 kg wet, 12 kg dry
Launch date (UTC)
2024-08-16 (1 year ago)
Launch vehicle
FALCON 9
Launch site
Air Force Western Test Range (AFWTR)
Object type
Payload
Rocket body
Debris
Shape & HBR
Box + 2 Pan, 1.0 m
Radar Cross Section
0.138 m², Medium (>0.1 m² and < 1m²)

Expand to show TLE details & history
Last TLE update: 1 day ago

TLE from 1 day ago
0 TOMORROW-S1
1 60479U 24149M   25301.19906030  .00009026  00000-0  33060-3 0  9997
2 60479  97.3967  17.8441 0002896  24.7056 335.4322 15.28240364 66608
Epoch: 2025-10-28T04:46Z
TLE epoch observation values (Epoch: 2025-10-28T04:46:38.809Z)
Latitude
-0.00003°
Longitude
-90.60758°
Altitude
482.367 km
Speed
7.625 km/s
True Right ascension
01h 11m 22s
True Declination
0° 00' 00"
Sunlit
Object was in full shadow at epoch
Visualization orbit readout
Latitude
Unknown
Longitude
Unknown
Altitude
Unknown
Speed
Unknown
Apparent Right ascension
Unknown
Apparent Declination
Unknown
Sunlit
N/A
Visualization observer readout
Local Sidereal Time
08:14:53
Azimuth
Unknown
Elevation
Unknown
Doppler factor
Unknown
Orbital elements
Apogee altitude
480.012 km
Perigee altitude
476.041 km
Semi-major axis
6,856.164 km
Eccentricity
0.00029
Inclination
97.3967°
RAAN
17.8441°
Arg. of periapsis
24.7056°
True anomaly
335.4184°
Mean anomaly
335.4322°
Eccentric anomaly
335.4253°
Mean motion
3.82315 °/min
Orbital period
94.16 mins
BSTAR
0.0003306
Loading maneuver chart data...
Computing Atmospheric mass density...
Loading historical data...
Loading historical data...
Loading historical data...
Loading historical data...
Loading historical data...
Loading historical data...
Loading historical data...

Documentation

Showing up to 5 results
|